Location: Rumah Long Bangan
(2.8362°N, 113.7519°E)
Time: 17:58:16
(UTC+00:00)

Cosmos 2016 Rocket - Pass Details

Date: 24 October 2021
Orbit: 947 x 1000 km, 83.0° (Epoch: 07 December)

Event Time Altitude Azimuth Distance (km) Brightness Sun altitude
Rises 11:59:56 0° 186° (S) 3,707 7.3 -27.7°
Reaches altitude 10° 12:02:29 10° 187° (S) 2,751 6.6 -28.3°
Maximum altitude 12:08:47 77° 273° (W) 1,007 4.0 -29.8°
Enters shadow 12:10:30 50° 347° (NNW) 1,224 4.4 -30.2°
